When you browse on this site, cookies collect data to enhance your experience and personalize the content and advertising you see.
Visit our Privacy Policy to learn more. By continuing to use the site, you agree to this use of cookies and data.
  • In Spain
  • List of Countries
  • For 7 days
  • Water Temperature
  • Satellite Maps
  • Weather Map
  • Weather Widgets
  • user-avatar
    Login

    Hourly Weather Hanoi

    Today, 17 December, Monday

    Time Temperature Precipitation Wind Pressure Humidity
    00:00 +16°C° 0 mm 2 mps 767 mmHg 61%
    01:00 +15°C° 0 mm 2 mps 767 mmHg 64%
    02:00 +15°C° 0 mm 2 mps 767 mmHg 64%
    03:00 +15°C° 0 mm 2 mps 767 mmHg 65%
    04:00 +15°C° 0 mm 2 mps 766 mmHg 66%
    05:00 +15°C° 0 mm 2 mps 767 mmHg 67%
    06:00 +14°C° 0 mm 2 mps 767 mmHg 68%
    07:00 +14°C° 0 mm 2 mps 767 mmHg 69%
    08:00 +16°C° 0 mm 2 mps 767 mmHg 62%
    09:00 +18°C° 0 mm 2 mps 767 mmHg 55%
    10:00 +20°C° 0 mm 3 mps 767 mmHg 47%
    11:00 +21°C° 0 mm 2 mps 766 mmHg 44%
    12:00 +24°C° 0 mm 2 mps 766 mmHg 41%
    13:00 +25°C° 0 mm 2 mps 765 mmHg 39%
    14:00 +25°C° 0 mm 2 mps 765 mmHg 39%
    15:00 +25°C° 0 mm 2 mps 764 mmHg 39%
    16:00 +25°C° 0 mm 1 mps 764 mmHg 40%
    17:00 +24°C° 0 mm 1 mps 764 mmHg 45%
    18:00 +22°C° 0 mm 1 mps 764 mmHg 50%
    19:00 +21°C° 0 mm 1 mps 765 mmHg 54%
    20:00 +20°C° 0 mm 1 mps 765 mmHg 57%
    21:00 +20°C° 0 mm 1 mps 766 mmHg 59%
    22:00 +19°C° 0 mm 1 mps 766 mmHg 61%
    23:00 +17°C° 0 mm 0 mps 766 mmHg 63%

    Tomorrow, 18 December, Tuesday

    Time Temperature Precipitation Wind Pressure Humidity
    00:00 +17°C° 0 mm 0 mps 766 mmHg 64%
    01:00 +16°C° 0 mm 0 mps 766 mmHg 65%
    02:00 +18°C° 0 mm 1 mps 765 mmHg 66%
    03:00 +18°C° 0 mm 1 mps 765 mmHg 67%
    04:00 +16°C° 0 mm 1 mps 765 mmHg 68%
    05:00 +16°C° 0 mm 1 mps 765 mmHg 69%
    06:00 +16°C° 0 mm 1 mps 765 mmHg 69%
    07:00 +16°C° 0 mm 1 mps 765 mmHg 70%
    08:00 +19°C° 0 mm 1 mps 765 mmHg 64%
    09:00 +21°C° 0 mm 1 mps 765 mmHg 57%
    10:00 +23°C° 0 mm 1 mps 765 mmHg 50%
    11:00 +24°C° 0 mm 1 mps 764 mmHg 49%
    12:00 +25°C° 0 mm 1 mps 763 mmHg 47%
    13:00 +26°C° 0 mm 2 mps 763 mmHg 46%
    14:00 +26°C° 0 mm 2 mps 762 mmHg 48%
    15:00 +26°C° 0 mm 3 mps 762 mmHg 50%
    16:00 +26°C° 0 mm 3 mps 761 mmHg 52%
    17:00 +24°C° 0 mm 3 mps 762 mmHg 58%
    18:00 +22°C° 0 mm 3 mps 762 mmHg 63%
    19:00 +21°C° 0 mm 2 mps 762 mmHg 69%
    20:00 +21°C° 0 mm 2 mps 763 mmHg 72%
    21:00 +20°C° 0 mm 2 mps 763 mmHg 74%
    22:00 +21°C° 0 mm 1 mps 763 mmHg 77%
    23:00 +21°C° 0 mm 1 mps 763 mmHg 77%

    Day after tomorrow, 19 December, Wednesday

    Time Temperature Precipitation Wind Pressure Humidity
    00:00 +21°C° 0 mm 1 mps 763 mmHg 78%
    01:00 +21°C° 0 mm 1 mps 763 mmHg 79%
    02:00 +21°C° 0 mm 1 mps 762 mmHg 79%
    03:00 +21°C° 0 mm 1 mps 762 mmHg 80%
    04:00 +20°C° 0 mm 1 mps 762 mmHg 81%
    05:00 +20°C° 0 mm 1 mps 762 mmHg 81%
    06:00 +20°C° 0 mm 1 mps 762 mmHg 82%
    07:00 +20°C° 0 mm 1 mps 762 mmHg 83%
    08:00 +22°C° 0 mm 1 mps 762 mmHg 79%
    09:00 +21°C° 0 mm 0 mps 763 mmHg 74%
    10:00 +23°C° 0 mm 0 mps 763 mmHg 70%
    11:00 +26°C° 0 mm 1 mps 762 mmHg 67%
    12:00 +27°C° 0 mm 2 mps 761 mmHg 64%
    13:00 +28°C° 0 mm 2 mps 760 mmHg 61%
    14:00 +28°C° 0 mm 2 mps 760 mmHg 61%
    15:00 +28°C° 0 mm 3 mps 759 mmHg 61%
    16:00 +28°C° 0 mm 3 mps 758 mmHg 62%
    17:00 +27°C° 0 mm 3 mps 759 mmHg 67%
    18:00 +26°C° 0 mm 3 mps 760 mmHg 72%
    19:00 +25°C° 0 mm 2 mps 760 mmHg 77%
    20:00 +24°C° 0 mm 2 mps 760 mmHg 80%
    21:00 +24°C° 0 mm 2 mps 760 mmHg 83%
    22:00 +23°C° 0 mm 2 mps 761 mmHg 86%
    23:00 +23°C° 0 mm 2 mps 760 mmHg 88%

    20 December, Thursday

    Time Temperature Precipitation Wind Pressure Humidity
    00:00 +23°C° 0 mm 1 mps 760 mmHg 89%
    01:00 +23°C° 0 mm 1 mps 760 mmHg 90%
    02:00 +23°C° 0 mm 1 mps 760 mmHg 90%
    03:00 +23°C° 0 mm 1 mps 760 mmHg 90%
    04:00 +21°C° 0 mm 0 mps 759 mmHg 91%
    05:00 +21°C° 0 mm 0 mps 759 mmHg 90%
    06:00 +21°C° 0 mm 0 mps 760 mmHg 90%
    07:00 +21°C° 0 mm 0 mps 760 mmHg 90%
    08:00 +24°C° 0 mm 1 mps 760 mmHg 85%
    09:00 +25°C° 0 mm 1 mps 760 mmHg 80%
    10:00 +26°C° 0 mm 1 mps 760 mmHg 76%
    11:00 +27°C° 0 mm 1 mps 759 mmHg 72%
    12:00 +28°C° 0 mm 2 mps 758 mmHg 69%
    13:00 +29°C° 0 mm 2 mps 757 mmHg 66%
    14:00 +29°C° 0 mm 2 mps 756 mmHg 66%
    15:00 +29°C° 0 mm 3 mps 756 mmHg 67%
    16:00 +29°C° 0 mm 3 mps 755 mmHg 67%
    17:00 +28°C° 0 mm 3 mps 756 mmHg 73%
    18:00 +27°C° 0 mm 3 mps 756 mmHg 79%
    19:00 +26°C° 0 mm 3 mps 757 mmHg 85%
    20:00 +26°C° 0 mm 2 mps 757 mmHg 87%
    21:00 +26°C° 0 mm 2 mps 758 mmHg 90%
    22:00 +25°C° 0 mm 2 mps 758 mmHg 92%
    23:00 +25°C° 0 mm 2 mps 758 mmHg 93%

    21 December, Friday

    Time Temperature Precipitation Wind Pressure Humidity
    00:00 +25°C° 0 mm 2 mps 757 mmHg 94%
    01:00 +25°C° 0 mm 1 mps 757 mmHg 95%
    02:00 +25°C° 0.1 mm 1 mps 757 mmHg 95%
    03:00 +25°C° 0.1 mm 1 mps 757 mmHg 94%
    04:00 +25°C° 0.1 mm 1 mps 757 mmHg 94%
    05:00 +25°C° 0.3 mm 1 mps 757 mmHg 94%
    06:00 +25°C° 0.3 mm 1 mps 758 mmHg 94%
    07:00 +25°C° 0.3 mm 1 mps 758 mmHg 93%
    08:00 +27°C° 0.3 mm 2 mps 758 mmHg 87%
    09:00 +28°C° 0.3 mm 2 mps 759 mmHg 81%
    10:00 +29°C° 0.3 mm 2 mps 759 mmHg 75%
    11:00 +30°C° 0.1 mm 2 mps 758 mmHg 71%
    12:00 +31°C° 0.1 mm 2 mps 757 mmHg 67%
    13:00 +31°C° 0.1 mm 2 mps 756 mmHg 64%
    14:00 +31°C° 0.1 mm 3 mps 756 mmHg 64%
    15:00 +31°C° 0.1 mm 3 mps 756 mmHg 65%
    16:00 +31°C° 0.1 mm 3 mps 755 mmHg 65%
    17:00 +30°C° 0.1 mm 4 mps 756 mmHg 72%
    18:00 +29°C° 0.1 mm 4 mps 757 mmHg 79%
    19:00 +27°C° 0.1 mm 4 mps 758 mmHg 86%
    20:00 +27°C° 0 mm 3 mps 758 mmHg 88%
    21:00 +26°C° 0 mm 3 mps 758 mmHg 90%
    22:00 +26°C° 0 mm 2 mps 759 mmHg 91%
    23:00 +26°C° 0.2 mm 2 mps 759 mmHg 91%

    22 December, Saturday

    Time Temperature Precipitation Wind Pressure Humidity
    00:00 +26°C° 0.2 mm 2 mps 759 mmHg 90%
    01:00 +26°C° 0.2 mm 3 mps 759 mmHg 89%
    02:00 +26°C° 0.3 mm 2 mps 758 mmHg 89%
    03:00 +26°C° 0.3 mm 2 mps 758 mmHg 90%
    04:00 +25°C° 0.3 mm 2 mps 758 mmHg 90%
    05:00 +25°C° 0.1 mm 2 mps 759 mmHg 91%
    06:00 +25°C° 0.1 mm 2 mps 759 mmHg 91%
    07:00 +25°C° 0.1 mm 2 mps 760 mmHg 92%
    08:00 +26°C° 0.2 mm 2 mps 760 mmHg 85%
    09:00 +28°C° 0.2 mm 2 mps 760 mmHg 79%
    10:00 +29°C° 0.2 mm 3 mps 761 mmHg 72%
    11:00 +30°C° 0.3 mm 3 mps 760 mmHg 68%
    12:00 +30°C° 0.3 mm 3 mps 759 mmHg 65%
    13:00 +31°C° 0.3 mm 3 mps 759 mmHg 61%
    14:00 +31°C° 0.3 mm 3 mps 758 mmHg 63%
    15:00 +30°C° 0.3 mm 4 mps 758 mmHg 65%
    16:00 +30°C° 0.3 mm 4 mps 758 mmHg 66%
    17:00 +29°C° 0.5 mm 3 mps 759 mmHg 72%
    18:00 +28°C° 0.5 mm 3 mps 760 mmHg 77%
    19:00 +26°C° 0.5 mm 2 mps 761 mmHg 83%
    20:00 +26°C° 1.1 mm 3 mps 761 mmHg 82%
    21:00 +25°C° 1.1 mm 4 mps 762 mmHg 81%
    22:00 +25°C° 1.1 mm 4 mps 762 mmHg 80%
    23:00 +23°C° 0.2 mm 4 mps 762 mmHg 80%
    Show more